This is the latest recevied weather packets stored in our database for station/object W8RSN-13. If no packets are shown the sender has not sent any weather packets the latest 10 day(s).
| Time | Temp. | Humidity | Pressure | Rain* | Wind** | Luminosity | Snow |
|---|---|---|---|---|---|---|---|
| 1788648869 | 33.33° C | 29% | 1013.9 hPa | - | - | - | - |
| 1788648568 | 32.78° C | 30% | 1014.1 hPa | - | - | - | - |
| 1788648267 | 32.78° C | 30% | 1014.1 hPa | - | - | - | - |
| 1788647966 | 32.22° C | 29% | 1014.2 hPa | - | - | - | - |
| 1788647665 | 32.22° C | 29% | 1014.1 hPa | - | - | - | - |
| 1788647365 | 31.67° C | 28% | 1014.3 hPa | - | - | - | - |
| 1788647064 | 31.67° C | 28% | 1014.4 hPa | - | - | - | - |
| 1788646763 | 32.22° C | 27% | 1014.3 hPa | - | - | - | - |
| 1788646462 | 32.22° C | 26% | 1014.4 hPa | - | - | - | - |
| 1788646161 | 32.78° C | 26% | 1014.5 hPa | - | - | - | - |
| 1788645860 | 32.78° C | 25% | 1014.7 hPa | - | - | - | - |
| 1788645560 | 32.78° C | 26% | 1014.5 hPa | - | - | - | - |
| 1788645258 | 32.78° C | 25% | 1014.6 hPa | - | - | - | - |
| 1788644957 | 32.78° C | 25% | 1014.7 hPa | - | - | - | - |
| 1788644657 | 32.22° C | 24% | 1014.8 hPa | - | - | - | - |
| 1788644356 | 32.78° C | 24% | 1014.9 hPa | - | - | - | - |
| 1788644075 | 32.78° C | 24% | 1014.9 hPa | - | - | - | - |
| 1788643774 | 32.22° C | 25% | 1014.9 hPa | - | - | - | - |
| 1788643473 | 32.22° C | 25% | 1015.1 hPa | - | - | - | - |
| 1788643173 | 31.67° C | 25% | 1015 hPa | - | - | - | - |
| 1788642871 | 31.67° C | 25% | 1014.9 hPa | - | - | - | - |
| 1788642571 | 32.78° C | 24% | 1015 hPa | - | - | - | - |
| 1788642270 | 32.22° C | 24% | 1015.1 hPa | - | - | - | - |
| 1788641969 | 32.78° C | 23% | 1015 hPa | - | - | - | - |
| 1788641670 | 32.22° C | 24% | 1015.2 hPa | - | - | - | - |
* Rain since midnight (hover to see other rain measurements)
** Current wind speed in m/s (hover to see current wind gust speed)